Vertical_Velocity
4 3 6 2 -4 0 2 -2 1 -0 -2 -1 -1 -1 1 2 0 -1 -4 -3 -6 -2 -3 -3 -3 -3 -4 -3 -1 -0 -1 -1 -0 1 1 1 1 0 -1 -1 -1 1 -1
-2 1 -2 -1 2 0 -0 -0 1 -0 -0 -2 -1 -1 -0 2 0 -1 -3 -4 -3 -1 -1 0 -0 -2 -3 -2 -2 -1 -1 -2 -3 -2 -0 1 1 2 2 1 -1 -3 -2
0 -1 3 3 1 1 1 0 0 1 -1 0 -2 1 2 2 1 -0 -2 -2 -2 -1 -0 -0 -2 -2 -2 -1 -1 -1 -1 1 1 -2 -2 -2 -2 -2 0 2 2 3 -0
-0 1 3 2 2 1 -1 0 0 -0 -1 -1 1 -2 2 2 2 -0 -2 -2 -1 -1 -0 -1 -1 -1 -1 -1 -1 -1 -1 -1 -0 -0 -1 -3 -1 -1 -1 -1 -1 -0 -1
1 1 2 3 -1 -1 1 -0 0 0 -1 1 -1 1 2 1 2 0 -2 -1 -3 -2 -1 -1 -0 -0 -1 -1 -0 -1 -1 -1 -1 0 1 -1 -3 -4 -3 -3 -1 -1 0
2 2 -0 0 -1 1 1 3 0 1 2 -0 2 2 1 2 2 -1 -1 -2 -2 -2 -3 -2 -2 -1 -1 -1 -1 -1 -1 -1 -1 -1 -1 0 -1 -1 -2 -3 -5 -5 -5
1 2 -1 1 -0 2 3 0 1 2 1 -0 0 0 4 2 0 -2 -1 -1 -2 -2 -2 -2 -2 -1 -0 -1 -2 -2 -2 -2 -2 -2 -1 -1 -1 -2 -2 -2 -2 -2 -2
1 2 -1 -0 2 2 0 2 1 -0 -0 1 1 2 2 -0 0 -2 -1 -0 -2 -2 -2 -2 -2 -1 -1 -1 -0 -1 -0 -1 -1 -0 0 -0 -1 -1 -1 -2 -2 -4 -3
2 1 -2 1 3 1 2 -0 -0 -0 1 1 -0 -1 -0 -0 -1 -1 -0 -0 -1 -1 -1 -1 -1 -1 -1 -1 0 -0 -2 -3 -3 -2 -1 -1 -1 -1 -1 -1 -2 -1 -6
-1 -1 1 5 2 2 -0 1 -1 -0 0 0 -1 -3 -0 -0 0 -0 -1 -0 -1 -1 -1 -1 -0 -1 -0 -0 0 -0 -1 -1 -1 -1 -2 -2 -1 1 -3 -4 -3 -4 -2
2 -1 8 2 2 1 1 -0 -2 0 1 1 -1 -1 0 -0 -0 -0 -0 -1 -0 -1 -1 0 -2 -1 -0 -0 -0 -0 -1 -1 -1 -1 -1 -2 -3 -2 -1 -1 -1 -2 -2
4 5 4 5 2 0 0 -1 -0 1 1 1 -0 1 0 -1 -0 0 -0 -1 -1 -1 -1 -1 -1 -1 -0 -1 -1 -1 -1 -2 -2 -2 -1 -1 -0 -2 -1 -1 -1 -0 -1
1 -0 -0 -0 1 1 0 0 -0 2 2 1 1 -0 -0 0 -1 0 0 -0 -0 -0 -1 -0 -1 -1 -2 -2 -1 -2 -2 -2 -2 -2 -2 -3 -4 -4 -3 -4 -2 -3 -2
1 0 1 1 1 1 1 0 0 0 0 -1 0 -0 0 1 0 -1 -0 0 -0 0 -1 -1 -1 -1 -0 -1 -2 -2 -1 -2 -2 -2 -2 -2 -3 -3 -4 -3 -5 -5 -5
-0 -0 0 1 0 1 1 -0 2 2 2 2 1 2 3 2 1 1 -0 -1 -0 -0 -1 -1 -2 -1 -1 -1 -1 -2 -0 -2 -1 -2 -3 -4 -3 -4 -3 -4 -3 -4 -4
2 -2 -1 -0 1 0 2 2 3 1 1 0 1 1 1 1 -0 1 0 -0 2 -1 -1 -1 -0 -0 -1 -1 0 -0 0 -1 -2 -1 -1 -2 -3 -2 -1 -3 -2 -2 -2
0 0 2 2 -0 1 1 0 1 0 1 2 1 1 0 -0 1 -0 -1 -0 1 0 -2 0 -2 -2 -1 0 -1 -1 -3 1 -1 0 -1 -1 -2 -3 -3 -1 -2 -3 -2
1 0 1 -2 1 0 1 1 1 2 1 2 1 0 1 2 -1 -1 -1 1 0 0 -0 -2 -1 -0 -1 -1 -1 -1 -2 -1 1 -2 -3 -2 -3 -2 -2 -3 -3 -4 -4
1 1 1 0 1 0 1 2 2 1 1 -0 1 2 1 1 1 2 1 0 -1 1 2 2 -2 -1 -1 1 0 -2 -1 -3 -1 -1 0 0 -2 -2 -2 -3 -3 -4 -3
1 2 -1 2 2 1 0 1 0 1 1 1 2 2 -1 1 4 0 1 1 -1 -1 -1 1 4 4 1 -4 -2 1 -2 -1 -0 -1 -4 -4 -4 -3 -4 -4 -4 -3 -3
-1 2 -1 1 0 1 1 1 0 1 0 2 1 0 0 1 -0 2 1 1 1 2 0 -1 0 -2 0 2 0 -1 -0 -1 -3 -2 -1 -2 -2 -2 -3 -2 -2 -3 -3
3 2 2 1 0 3 1 1 2 3 1 1 1 3 0 1 5 0 -1 1 2 0 3 1 -1 0 -0 0 1 1 1 -1 -2 -1 -1 -2 -1 -2 -2 -2 -2 -2 -3
1 -1 3 3 1 2 3 -0 2 2 1 2 0 -1 7 2 -2 2 3 2 2 3 1 0 0 -1 -1 -1 -2 0 -2 -2 -1 2 -1 -1 -1 -2 -2 -1 -2 -2 -2
6 4 0 1 1 1 3 3 3 4 2 2 2 1 -1 8 2 -1 1 1 1 2 1 2 1 -0 -2 -1 -1 2 1 -4 -1 -3 -2 -2 -1 -1 -1 -0 -1 -1 -2
1 2 1 1 2 0 3 1 1 1 2 2 1 -0 -1 -2 1 6 2 0 1 2 0 1 1 0 0 -0 -1 1 -1 -0 1 -1 -1 -0 1 1 1 -0 -0 -0 -3
1 0 1 0 1 -0 -0 0 0 1 1 1 1 2 2 1 1 1 2 2 2 1 -0 1 1 2 0 2 -2 0 0 0 1 -2 -1 -0 -1 -2 -1 -1 -1 -1 -1
Height
5618 5618 5617 5615 5614 5613 5611 5610 5608 5607 5605 5604 5601 5599 5598 5597 5596 5594 5592 5589 5586 5582 5579 5575 5571 5568 5564 5561 5558 5555 5553 5551 5549 5548 5548 5547 5546 5546 5545 5545 5544 5545 5545
5608 5607 5607 5606 5605 5603 5603 5601 5601 5599 5598 5596 5594 5592 5592 5591 5591 5589 5587 5585 5582 5580 5577 5574 5571 5568 5565 5562 5559 5556 5554 5551 5549 5548 5546 5546 5545 5544 5542 5541 5539 5538 5537
5598 5598 5598 5596 5595 5595 5594 5594 5593 5591 5589 5588 5587 5586 5586 5585 5585 5585 5583 5581 5579 5577 5574 5572 5569 5566 5563 5560 5558 5555 5553 5551 5549 5547 5545 5544 5542 5541 5540 5539 5536 5534 5531
5588 5589 5588 5587 5587 5587 5586 5585 5584 5583 5581 5580 5580 5580 5580 5580 5580 5579 5578 5577 5575 5573 5571 5568 5565 5563 5560 5558 5555 5552 5550 5547 5546 5544 5542 5541 5539 5538 5536 5534 5532 5530 5527
5579 5579 5579 5579 5579 5579 5577 5576 5575 5574 5573 5573 5573 5573 5573 5574 5575 5575 5573 5572 5570 5569 5567 5564 5561 5559 5557 5554 5552 5549 5547 5544 5542 5540 5538 5537 5535 5533 5531 5528 5526 5524 5522
5570 5570 5571 5571 5571 5570 5568 5567 5566 5565 5565 5565 5564 5565 5567 5569 5569 5569 5569 5568 5566 5565 5563 5560 5558 5555 5553 5551 5548 5546 5543 5541 5538 5535 5533 5531 5529 5527 5525 5523 5520 5517 5513
5562 5562 5563 5563 5562 5561 5560 5559 5558 5558 5557 5557 5558 5559 5561 5563 5564 5564 5564 5563 5562 5560 5559 5557 5554 5552 5550 5548 5545 5542 5540 5537 5534 5532 5528 5525 5523 5520 5517 5514 5512 5510 5508
5554 5555 5555 5555 5554 5553 5552 5552 5551 5550 5550 5549 5550 5552 5555 5557 5558 5559 5559 5558 5557 5556 5554 5553 5550 5548 5546 5544 5541 5539 5536 5533 5530 5528 5524 5521 5518 5514 5511 5508 5504 5501 5499
5546 5546 5546 5546 5546 5545 5545 5544 5544 5543 5543 5543 5543 5545 5549 5551 5553 5553 5553 5552 5551 5550 5549 5547 5545 5542 5540 5538 5536 5533 5530 5528 5525 5522 5518 5515 5511 5507 5503 5500 5497 5494 5491
5536 5536 5536 5538 5537 5538 5538 5538 5537 5537 5537 5537 5538 5540 5544 5546 5546 5547 5547 5546 5545 5543 5542 5539 5538 5536 5534 5531 5529 5526 5523 5520 5517 5514 5511 5508 5504 5501 5497 5493 5489 5486 5483
5526 5526 5530 5529 5530 5531 5531 5531 5531 5531 5532 5533 5534 5536 5539 5540 5540 5540 5540 5539 5537 5536 5534 5532 5530 5528 5526 5523 5520 5517 5514 5510 5507 5503 5500 5496 5492 5489 5486 5483 5480 5476 5473
5520 5522 5521 5522 5523 5524 5524 5524 5525 5525 5526 5527 5529 5531 5532 5533 5533 5533 5532 5531 5530 5528 5526 5525 5522 5520 5517 5514 5511 5508 5505 5501 5497 5493 5489 5486 5482 5478 5475 5471 5468 5465 5461
5513 5514 5515 5516 5517 5516 5516 5517 5518 5519 5520 5521 5522 5523 5524 5524 5524 5524 5523 5522 5521 5519 5518 5516 5513 5511 5508 5505 5502 5499 5495 5491 5487 5484 5480 5476 5472 5467 5463 5459 5455 5451 5448
5507 5508 5509 5509 5509 5508 5510 5510 5512 5513 5513 5514 5515 5515 5516 5516 5516 5515 5514 5513 5512 5511 5509 5507 5504 5501 5498 5496 5492 5488 5485 5481 5477 5473 5469 5465 5460 5456 5451 5447 5443 5438 5434
5502 5502 5503 5502 5501 5502 5503 5504 5505 5505 5506 5507 5507 5508 5508 5508 5507 5507 5505 5504 5502 5501 5498 5497 5494 5491 5488 5485 5481 5478 5474 5470 5466 5462 5457 5453 5449 5444 5439 5434 5429 5424 5419
5496 5496 5496 5495 5495 5495 5496 5497 5498 5497 5498 5498 5499 5499 5499 5499 5498 5497 5496 5494 5493 5490 5488 5486 5484 5481 5477 5474 5470 5467 5463 5459 5454 5450 5445 5441 5436 5430 5425 5419 5414 5409 5403
5488 5488 5487 5487 5487 5488 5488 5489 5489 5489 5489 5490 5489 5489 5489 5489 5488 5486 5485 5484 5482 5480 5477 5475 5472 5469 5466 5462 5458 5454 5449 5445 5441 5436 5432 5426 5421 5416 5410 5404 5398 5393 5387
5481 5480 5480 5479 5480 5480 5480 5480 5480 5480 5480 5480 5480 5479 5479 5478 5477 5476 5475 5473 5471 5468 5466 5463 5460 5457 5453 5449 5444 5440 5436 5432 5427 5422 5417 5411 5406 5400 5393 5387 5381 5375 5368
5473 5473 5472 5472 5472 5472 5471 5471 5471 5471 5471 5470 5470 5470 5469 5467 5466 5465 5463 5461 5458 5456 5454 5451 5447 5443 5439 5435 5431 5426 5422 5417 5412 5407 5402 5396 5389 5383 5376 5370 5363 5355 5348
5465 5465 5464 5463 5463 5462 5462 5461 5461 5461 5460 5460 5459 5459 5456 5455 5455 5453 5451 5449 5446 5443 5440 5437 5434 5430 5426 5421 5416 5412 5406 5402 5397 5391 5384 5378 5371 5364 5357 5351 5343 5337 5330
5457 5457 5455 5455 5454 5452 5452 5452 5451 5450 5449 5448 5447 5446 5445 5443 5441 5439 5437 5435 5432 5429 5426 5423 5419 5415 5410 5406 5401 5396 5391 5385 5379 5374 5367 5360 5353 5346 5338 5332 5325 5319 5312
5449 5448 5447 5445 5444 5442 5441 5441 5441 5439 5438 5437 5435 5434 5432 5430 5428 5426 5423 5421 5419 5416 5412 5408 5404 5400 5396 5391 5386 5380 5374 5368 5362 5356 5349 5342 5334 5327 5320 5314 5307 5300 5293
5439 5438 5437 5435 5433 5432 5431 5430 5429 5428 5426 5424 5422 5420 5420 5417 5414 5412 5410 5408 5405 5401 5398 5393 5389 5384 5379 5374 5369 5363 5357 5351 5344 5338 5330 5323 5316 5309 5302 5295 5288 5281 5274
5429 5427 5425 5424 5423 5422 5420 5419 5417 5416 5414 5411 5409 5407 5405 5404 5401 5398 5395 5392 5389 5386 5382 5378 5373 5368 5363 5358 5353 5347 5339 5333 5327 5320 5313 5306 5299 5292 5284 5277 5269 5263 5256
5418 5416 5415 5414 5412 5410 5408 5406 5404 5402 5400 5398 5395 5393 5391 5389 5387 5385 5381 5378 5375 5371 5367 5362 5357 5352 5347 5341 5335 5329 5323 5316 5309 5302 5296 5289 5282 5274 5266 5259 5252 5245 5237
5406 5405 5403 5401 5399 5397 5395 5393 5391 5388 5386 5384 5382 5380 5378 5376 5373 5370 5367 5363 5359 5355 5350 5346 5341 5336 5330 5324 5317 5312 5305 5298 5291 5283 5277 5270 5263 5256 5249 5242 5234 5226 5218